Regional Weather Roundup
Issued by NWS

Home | Current Version | Previous Version | Graphics & Text | Print | Product List | Glossary On
Versions: 1 2 3 4 5 6 7 8 9 10 11 12 13 14 15 16 17 18 19 20 21 22 23 24 25 26 27 28 29 30 31 32 33 34 35 36 37 38 39 40 41 42 43 44 45 46 47 48 49 50
000
ASUS43 KFSD 020910
RWRSD

WEATHER ROUNDUP FOR SOUTH DAKOTA
NATIONAL WEATHER SERVICE SIOUX FALLS SD
400 AM CDT TUE JUN 02 2015

NOTE: "FAIR" INDICATES FEW OR NO CLOUDS BELOW 12,000 FEET WITH NO
SIGNIFICANT WEATHER AND/OR OBSTRUCTIONS TO VISIBILITY.


SDZ001>005-009-010-012>017-021000-
NORTHWEST AND NORTH CENTRAL SOUTH DAKOTA

CITY           SKY/WX    TMP DP  RH WIND       PRES   REMARKS
BUFFALO          N/A     62  57  83 NW15      29.75R
FAITH            N/A     66  52  60 N5        29.79R
MOBRIDGE       CLOUDY    68  62  81 S16       29.73F
$$

SDZ012>016-024>037-041>051-057-063-072>074-021000-
SOUTHWEST AND SOUTH CENTRAL SOUTH DAKOTA

CITY           SKY/WX    TMP DP  RH WIND       PRES   REMARKS
RAPID CTY ARPT MOCLDY    62  53  72 SE5       29.80R
PIERRE         CLOUDY    65  60  84 SE17      29.76F
CUSTER         PTCLDY    55  45  68 W7        29.95F
ELLSWORTH AFB  CLOUDY    62  56  80 NW8       29.81R
PHILIP         CLOUDY    70  55  59 VRB5      29.76R
PINE RIDGE     MOCLDY    66  50  56 S22G30    29.83R
SPEARFISH      FAIR      63  52  67 SW6       29.87F
WINNER         FAIR      66  58  75 S14       29.84F
$$

SDZ004>011-016>023-039-040-021000-
NORTHEAST SOUTH DAKOTA

CITY           SKY/WX    TMP DP  RH WIND       PRES   REMARKS
ABERDEEN       MOCLDY    62  53  72 S18       29.83F
WATERTOWN      CLOUDY    60  51  72 S13       29.93F
BROOKINGS      CLOUDY    59  48  67 S13G18    29.98F
SISSETON         N/A     60  51  72 S15       29.88F
$$

SDZ017-020-022-023-036>040-048>070-021000-
SOUTHEAST SOUTH DAKOTA

CITY           SKY/WX    TMP DP  RH WIND       PRES   REMARKS
SIOUX FALLS    MOCLDY    60  51  72 S12       29.99R
HURON          CLOUDY    62  53  72 SE18G25   29.87F
CHAMBERLAIN    CLOUDY    64  59  83 S13       29.84F
MITCHELL       MOCLDY    63  54  72 S18       29.90F
YANKTON        MOCLDY    63  52  67 SE13G18   29.96S
$$

ABBREVIATIONS USED IN REMARKS
   TC - TEMPERATURE IN CELSIUS
  WCI - WIND CHILL INDEX
   HX - HEAT INDEX
  VSB - VISIBILITY




USA.gov is the U.S. government's official web portal to all federal, state and local government web resources and services.